Weather History for Kokomo, IN

Change the Weather History Date:

Thursday, November 21, 2013

  Actual Average (KGUS) Record (KGUS)
Temperature  
Mean Temperature 45 °F -  
Max Temperature 48 °F 45 °F 61 °F (2010)
Min Temperature 42 °F 32 °F 7 °F (2014)
Degree Days  
Heating Degree Days 20    
Moisture  
Dew Point 42 °F    
Average Humidity 88    
Maximum Humidity 100    
Minimum Humidity 66    
Precipitation  
Precipitation 0.26 in - - ()
Sea Level Pressure  
Sea Level Pressure 30.19 in    
Wind  
Wind Speed 10 mph (South)    
Max Wind Speed 18 mph    
Max Gust Speed 24 mph    
Visibility 6 miles    
Events      
Averages and records for this station are not official NWS values.
T = Trace of Precipitation, MM = Missing Value Source: NWS Daily Summary

Daily Weather History Graph

Daily Weather History Graph

Search for Another Location

Airport:

Trip Planner

Search our weather history database for the weather conditions in past years. The results will help you decide how hot, cold, wet, or windy it might be!

Date:

Astronomy

Nov. 21, 2013 Rise Set
Actual Time 6:37 AM CST 4:22 PM CST
Civil Twilight 6:08 AM CST 4:51 PM CST
Nautical Twilight 5:34 AM CST 5:25 PM CST
Astronomical Twilight 5:02 AM CST 5:57 PM CST
Moon 7:58 PM CST 9:43 AM CST
Length of Visible Light 10h 43m
Length of Day
9h 44m
Waning Gibbous, 85% of the Moon is Illuminated
Nov 21
Waning Gibbous
Nov 25
Last Quarter
Dec 2
New
Dec 9
First Quarter
Dec 17
Full

Hourly Weather History & Observations

Time (CST) Temp. Windchill Dew Point Humidity Pressure Visibility Wind Dir Wind Speed Gust Speed Precip Events Conditions
12:15 AM 44.6 °F 39.7 °F 35.6 °F 71% 30.17 in 10.0 mi SSE 9.2 mph - N/A   Overcast
12:35 AM 44.6 °F 39.7 °F 35.6 °F 71% 30.17 in 10.0 mi SSE 9.2 mph - N/A   Overcast
12:55 AM 44.6 °F 39.7 °F 35.6 °F 71% 30.17 in 10.0 mi SSE 9.2 mph - N/A   Overcast
1:15 AM 44.6 °F 39.2 °F 35.6 °F 71% 30.18 in 10.0 mi SSE 10.4 mph - N/A   Overcast
1:35 AM 44.6 °F 39.7 °F 35.6 °F 71% 30.18 in 10.0 mi SSE 9.2 mph - N/A   Overcast
1:55 AM 44.6 °F 40.2 °F 35.6 °F 71% 30.18 in 10.0 mi SSE 8.1 mph - N/A   Overcast
2:15 AM 44.6 °F 39.7 °F 33.8 °F 66% 30.18 in 10.0 mi SSE 9.2 mph - N/A   Overcast
2:35 AM 44.6 °F 39.2 °F 35.6 °F 71% 30.18 in 10.0 mi SSE 10.4 mph - N/A   Overcast
2:55 AM 44.6 °F 38.8 °F 35.6 °F 71% 30.18 in 10.0 mi South 11.5 mph - N/A   Overcast
3:15 AM 44.6 °F 38.8 °F 35.6 °F 71% 30.18 in 10.0 mi SSE 11.5 mph - N/A   Overcast
3:35 AM 42.8 °F 37.0 °F 37.4 °F 81% 30.17 in 10.0 mi SSE 10.4 mph - N/A   Overcast
3:55 AM 42.8 °F 37.0 °F 37.4 °F 81% 30.17 in 10.0 mi SSE 10.4 mph - N/A   Overcast
4:15 AM 42.8 °F 38.0 °F 37.4 °F 81% 30.18 in 10.0 mi South 8.1 mph - N/A   Overcast
4:35 AM 42.8 °F 38.6 °F 37.4 °F 81% 30.19 in 10.0 mi South 6.9 mph - N/A   Overcast
4:55 AM 42.8 °F 37.5 °F 37.4 °F 81% 30.19 in 10.0 mi South 9.2 mph - 0.01 in   Overcast
5:15 AM 42.8 °F 36.6 °F 39.2 °F 87% 30.20 in 10.0 mi South 11.5 mph - 0.01 in   Overcast
5:35 AM 42.8 °F 36.2 °F 39.2 °F 87% 30.19 in 10.0 mi SSE 12.7 mph - 0.02 in   Overcast
5:55 AM 42.8 °F 37.0 °F 39.2 °F 87% 30.20 in 10.0 mi SSE 10.4 mph - 0.02 in   Mostly Cloudy
6:15 AM 42.8 °F 36.6 °F 39.2 °F 87% 30.21 in 10.0 mi SSE 11.5 mph - N/A   Mostly Cloudy
6:35 AM 42.8 °F 37.0 °F 39.2 °F 87% 30.22 in 10.0 mi SSE 10.4 mph - N/A   Mostly Cloudy
6:55 AM 42.8 °F 36.2 °F 39.2 °F 87% 30.21 in 10.0 mi SSE 12.7 mph - N/A   Mostly Cloudy
7:15 AM 42.8 °F 35.1 °F 39.2 °F 87% 30.21 in 10.0 mi South 16.1 mph - N/A   Overcast
7:35 AM 44.6 °F 36.9 °F 39.2 °F 81% 30.21 in 10.0 mi SSE 18.4 mph 21.9 mph N/A   Overcast
7:55 AM 44.6 °F 37.2 °F 39.2 °F 81% 30.21 in 10.0 mi SSE 17.3 mph 24.2 mph N/A   Overcast
8:15 AM 44.6 °F 37.4 °F 39.2 °F 81% 30.21 in 10.0 mi SSE 16.1 mph - N/A   Overcast
8:35 AM 44.6 °F 37.8 °F 39.2 °F 81% 30.22 in 10.0 mi South 15.0 mph - N/A   Overcast
8:55 AM 44.6 °F 37.8 °F 39.2 °F 81% 30.23 in 10.0 mi South 15.0 mph - N/A   Overcast
9:15 AM 44.6 °F 38.8 °F 39.2 °F 81% 30.24 in 10.0 mi South 11.5 mph - N/A   Mostly Cloudy
9:35 AM 44.6 °F 38.4 °F 41.0 °F 87% 30.24 in 10.0 mi South 12.7 mph - N/A   Mostly Cloudy
9:55 AM 44.6 °F 38.1 °F 41.0 °F 87% 30.23 in 10.0 mi South 13.8 mph 18.4 mph N/A   Overcast
10:15 AM 46.4 °F 40.1 °F 41.0 °F 81% 30.23 in 10.0 mi South 15.0 mph - N/A   Overcast
10:35 AM 44.6 °F 38.4 °F 42.8 °F 93% 30.22 in 7.0 mi South 12.7 mph - N/A   Overcast
10:55 AM 44.6 °F 39.2 °F 42.8 °F 93% 30.21 in 7.0 mi South 10.4 mph - N/A   Overcast
11:15 AM 44.6 °F 38.8 °F 42.8 °F 93% 30.21 in 7.0 mi South 11.5 mph - 0.01 in   Overcast
11:35 AM 44.6 °F 39.2 °F 42.8 °F 93% 30.20 in 5.0 mi South 10.4 mph - 0.02 in   Overcast
11:55 AM 44.6 °F 39.7 °F 42.8 °F 93% 30.19 in 5.0 mi South 9.2 mph - 0.04 in   Overcast
12:15 PM 44.6 °F 39.7 °F 44.6 °F 100% 30.18 in 5.0 mi South 9.2 mph - 0.02 in   Overcast
12:35 PM 46.4 °F 42.4 °F 44.6 °F 93% 30.18 in 5.0 mi South 8.1 mph - 0.03 in   Overcast
12:55 PM 46.4 °F 42.4 °F 44.6 °F 93% 30.17 in 5.0 mi SSW 8.1 mph - 0.03 in   Mostly Cloudy
1:15 PM 46.4 °F 42.4 °F 44.6 °F 93% 30.18 in 5.0 mi SSW 8.1 mph - 0.01 in   Mostly Cloudy
1:35 PM 46.4 °F 42.9 °F 44.6 °F 93% 30.17 in 5.0 mi SSW 6.9 mph - 0.02 in   Overcast
1:55 PM 46.4 °F 42.9 °F 44.6 °F 93% 30.17 in 5.0 mi SSW 6.9 mph - 0.04 in   Overcast
2:15 PM 46.4 °F 42.9 °F 44.6 °F 93% 30.17 in 5.0 mi South 6.9 mph - N/A   Mostly Cloudy
2:35 PM 46.4 °F 43.5 °F 44.6 °F 93% 30.17 in 4.0 mi South 5.8 mph - 0.01 in   Mostly Cloudy
2:55 PM 46.4 °F 43.5 °F 44.6 °F 93% 30.17 in 3.0 mi South 5.8 mph - 0.02 in   Overcast
3:15 PM 46.4 °F 42.4 °F 44.6 °F 93% 30.18 in 4.0 mi SSW 8.1 mph - 0.01 in   Overcast
3:35 PM 46.4 °F 43.5 °F 44.6 °F 93% 30.18 in 3.0 mi South 5.8 mph - 0.03 in   Overcast
3:55 PM 46.4 °F 43.5 °F 44.6 °F 93% 30.18 in 3.0 mi South 5.8 mph - 0.04 in   Overcast
4:15 PM 46.4 °F 42.9 °F 44.6 °F 93% 30.18 in 2.5 mi South 6.9 mph - 0.01 in   Overcast
4:35 PM 46.4 °F 43.5 °F 44.6 °F 93% 30.18 in 3.0 mi South 5.8 mph - 0.01 in   Overcast
4:55 PM 46.4 °F 42.9 °F 44.6 °F 93% 30.18 in 3.0 mi South 6.9 mph - 0.02 in   Overcast
5:15 PM 46.4 °F 42.4 °F 46.4 °F 100% 30.18 in 3.0 mi South 8.1 mph - N/A   Mostly Cloudy
5:35 PM 46.4 °F 41.9 °F 46.4 °F 100% 30.18 in 5.0 mi South 9.2 mph - 0.01 in   Overcast
5:55 PM 46.4 °F 41.9 °F 44.6 °F 93% 30.18 in 4.0 mi South 9.2 mph - 0.01 in   Overcast
6:15 PM 48.2 °F - 46.4 °F 93% 30.18 in 4.0 mi South 10.4 mph - 0.01 in   Overcast
6:35 PM 48.2 °F - 46.4 °F 93% 30.17 in 3.0 mi South 10.4 mph - 0.02 in   Overcast
6:55 PM 48.2 °F - 46.4 °F 93% 30.16 in 3.0 mi South 11.5 mph - 0.02 in   Overcast
7:15 PM 48.2 °F - 46.4 °F 93% 30.16 in 3.0 mi South 12.7 mph - N/A   Overcast
7:35 PM 48.2 °F - 46.4 °F 93% 30.16 in 3.0 mi South 9.2 mph - 0.01 in   Mostly Cloudy
7:55 PM 48.2 °F - 46.4 °F 93% 30.16 in 3.0 mi South 6.9 mph - 0.01 in   Overcast
8:15 PM 48.2 °F - 46.4 °F 93% 30.17 in 2.5 mi SSW 5.8 mph - N/A   Overcast
8:35 PM 48.2 °F - 46.4 °F 93% 30.16 in 2.0 mi SSW 6.9 mph - N/A   Overcast
8:55 PM 48.2 °F - 48.2 °F 100% 30.17 in 1.8 mi SSW 6.9 mph - N/A   Overcast
9:15 PM 48.2 °F - 48.2 °F 100% 30.17 in 2.0 mi SSW 6.9 mph - N/A   Overcast
9:35 PM 48.2 °F - 48.2 °F 100% 30.17 in 2.0 mi SSW 5.8 mph - N/A   Overcast
9:55 PM 48.2 °F - 46.4 °F 93% 30.17 in 1.8 mi SSW 6.9 mph - N/A   Overcast
10:15 PM 48.2 °F - 48.2 °F 100% 30.17 in 2.0 mi SSW 8.1 mph - N/A   Overcast
10:35 PM 48.2 °F - 46.4 °F 93% 30.16 in 2.5 mi SSW 8.1 mph - N/A   Overcast
10:55 PM 48.2 °F - 48.2 °F 100% 30.16 in 2.5 mi SW 8.1 mph - N/A   Overcast
11:15 PM 48.2 °F - 48.2 °F 100% 30.17 in 3.0 mi SW 9.2 mph - N/A   Overcast
11:35 PM 48.2 °F - 48.2 °F 100% 30.17 in 2.5 mi WSW 9.2 mph - N/A   Overcast
11:55 PM 48.2 °F - 48.2 °F 100% 30.16 in 2.5 mi WSW 8.1 mph - N/A   Overcast